2023/09/04 00:00:00,60.1,20.7
2023/09/04 00:10:00,60.2,20.9
2023/09/04 00:20:00,60.3,20.8
2023/09/04 00:30:00,60.3,20.9
2023/09/04 00:40:00,60.4,20.8
2023/09/04 00:50:00,60.5,20.6
2023/09/04 01:00:00,60.5,20.8
2023/09/04 01:10:00,60.6,20.4
2023/09/04 01:20:00,60.7,20.5
2023/09/04 01:30:00,60.8,20.5
2023/09/04 01:40:00,60.9,20.4
2023/09/04 01:50:00,61.0,20.4
2023/09/04 02:00:00,61.1,20.2
2023/09/04 02:10:00,61.1,20.1
2023/09/04 02:20:00,61.2,20.2
2023/09/04 02:30:00,61.2,20.2
2023/09/04 02:40:00,61.4,20.1
2023/09/04 02:50:00,61.5,20.3
2023/09/04 03:00:00,61.6,20.3
2023/09/04 03:10:00,61.6,20.1
2023/09/04 03:20:00,61.7,20.1
2023/09/04 03:30:00,61.7,20.1
2023/09/04 03:40:00,61.8,20.2
2023/09/04 03:50:00,61.9,20.2
2023/09/04 04:00:00,62.0,20.1
2023/09/04 04:10:00,62.1,20.1
2023/09/04 04:20:00,62.2,20.2
2023/09/04 04:30:00,62.2,20.0
2023/09/04 04:40:00,62.2,20.1
2023/09/04 04:50:00,62.4,20.0
2023/09/04 05:00:00,62.4,19.7
2023/09/04 05:10:00,62.4,19.8
2023/09/04 05:20:00,62.4,19.7
2023/09/04 05:30:00,62.5,19.6
2023/09/04 05:40:00,62.5,19.7
2023/09/04 05:50:00,62.6,19.1
2023/09/04 06:00:00,62.5,19.5
2023/09/04 06:10:00,62.5,19.6
2023/09/04 06:20:00,61.6,19.7
2023/09/04 06:30:00,---,20.0
2023/09/04 06:40:00,62.5,20.0
2023/09/04 06:50:00,62.8,19.6
2023/09/04 07:00:00,62.9,19.5
2023/09/04 07:10:00,62.8,19.7
2023/09/04 07:20:00,63.0,19.6
2023/09/04 07:30:00,63.2,19.5
2023/09/04 07:40:00,63.3,19.7
2023/09/04 07:50:00,63.6,19.9
2023/09/04 08:00:00,63.7,20.4
2023/09/04 08:10:00,63.7,20.6
2023/09/04 08:20:00,63.7,20.8
2023/09/04 08:30:00,63.7,21.8
2023/09/04 08:40:00,63.6,22.5
2023/09/04 08:50:00,63.4,22.2
2023/09/04 09:00:00,63.6,22.5
2023/09/04 09:10:00,63.3,23.6
2023/09/04 09:20:00,63.4,24.3
2023/09/04 09:30:00,63.2,24.8
2023/09/04 09:40:00,63.0,24.4
2023/09/04 09:50:00,63.1,24.8
2023/09/04 10:00:00,63.6,25.1
2023/09/04 10:10:00,---,24.9
2023/09/04 10:20:00,37.3,25.4
2023/09/04 10:30:00,63.2,25.4
2023/09/04 10:40:00,63.4,25.1
2023/09/04 10:50:00,63.6,26.3
2023/09/04 11:00:00,63.4,25.8
2023/09/04 11:10:00,63.2,25.9
2023/09/04 11:20:00,63.0,26.3
2023/09/04 11:30:00,63.2,26.8
2023/09/04 11:40:00,62.6,26.1
2023/09/04 11:50:00,61.2,27.0
2023/09/04 12:00:00,61.0,26.9
2023/09/04 12:10:00,47.7,27.3
2023/09/04 12:20:00,38.4,26.5
2023/09/04 12:30:00,61.1,27.1
2023/09/04 12:40:00,---,28.6
2023/09/04 12:50:00,---,29.0
2023/09/04 13:00:00,37.2,29.0
2023/09/04 13:10:00,---,28.6
2023/09/04 13:20:00,---,27.6
2023/09/04 13:30:00,59.6,27.5
2023/09/04 13:40:00,60.5,27.1
2023/09/04 13:50:00,59.7,27.4
2023/09/04 14:00:00,59.4,27.1
2023/09/04 14:10:00,60.3,26.9
2023/09/04 14:20:00,60.4,27.6
2023/09/04 14:30:00,60.5,26.6
2023/09/04 14:40:00,61.4,26.3
2023/09/04 14:50:00,61.7,26.0
2023/09/04 15:00:00,37.1,25.8
2023/09/04 15:10:00,21.1,25.6
2023/09/04 15:20:00,24.1,25.0
2023/09/04 15:30:00,28.7,24.7
2023/09/04 15:40:00,33.3,24.4
2023/09/04 15:50:00,47.9,24.4
2023/09/04 16:00:00,64.3,24.2
2023/09/04 16:10:00,63.7,24.1
2023/09/04 16:20:00,64.0,24.1
2023/09/04 16:30:00,---,24.0
2023/09/04 16:40:00,63.6,24.0
2023/09/04 16:50:00,63.9,23.7
2023/09/04 17:00:00,63.9,23.8
2023/09/04 17:10:00,64.1,23.8
2023/09/04 17:20:00,64.0,23.7
2023/09/04 17:30:00,63.9,23.6
2023/09/04 17:40:00,64.3,23.5
2023/09/04 17:50:00,64.3,23.5
2023/09/04 18:00:00,64.3,23.4
2023/09/04 18:10:00,64.3,23.3
2023/09/04 18:20:00,64.3,23.2
2023/09/04 18:30:00,64.6,22.9
2023/09/04 18:40:00,64.4,23.3
2023/09/04 18:50:00,64.4,23.2
2023/09/04 19:00:00,64.5,23.2
2023/09/04 19:10:00,64.5,23.4
2023/09/04 19:20:00,64.6,23.0
2023/09/04 19:30:00,64.6,23.1
2023/09/04 19:40:00,64.5,23.3
2023/09/04 19:50:00,64.3,23.2
2023/09/04 20:00:00,64.2,23.0
2023/09/04 20:10:00,62.9,22.9
2023/09/04 20:20:00,62.5,23.0
2023/09/04 20:30:00,62.9,22.9
2023/09/04 20:40:00,63.3,23.0
2023/09/04 20:50:00,63.2,23.0
2023/09/04 21:00:00,63.5,23.0
2023/09/04 21:10:00,63.4,22.9
2023/09/04 21:20:00,63.6,23.0
2023/09/04 21:30:00,63.6,23.1
2023/09/04 21:40:00,63.7,23.5
2023/09/04 21:50:00,63.8,23.3
2023/09/04 22:00:00,63.5,23.1
2023/09/04 22:10:00,63.5,23.0
2023/09/04 22:20:00,63.5,23.2
2023/09/04 22:30:00,63.7,23.2
2023/09/04 22:40:00,63.6,23.0
2023/09/04 22:50:00,63.7,23.2
2023/09/04 23:00:00,63.8,23.4
2023/09/04 23:10:00,63.8,23.2
2023/09/04 23:20:00,63.8,23.2
2023/09/04 23:30:00,63.9,23.2
2023/09/04 23:40:00,63.8,23.2
2023/09/04 23:50:00,63.8,23.2
